Location: Mahannah Oil Field
(37.4664°N, 96.6003°W)
Time: 01:16:36
(UTC+00:00)

Tiros 1 despin weight - Pass Details

Date: 01 February 2021
Orbit: 593 x 642 km, 48.2° (Epoch: 25 February)

Event Time Altitude Azimuth Distance (km) Brightness Sun altitude
Rises 18:46:09 0° 269° (W) 2,919 ? 35.6°
Reaches altitude 10° 18:48:44 10° 281° (W) 2,005 ? 35.6°
Maximum altitude 18:52:46 29° 342° (NNW) 1,143 ? 35.6°
Drops below altitude 10° 18:56:46 10° 43° (NE) 1,982 ? 35.5°
Sets 18:59:19 0° 55° (NE) 2,879 ? 35.5°
